STARLINK-1509 (45766 NORAD) Tracking and Keplerian Element Data

This shows tracking and keplerian element data for the satellite.

Feedback or suggestion? Click here.




ElementValue
Catalog45766
NameSTARLINK-1509
Epoch Orbit532
Epoch Day192.16668981
Epoch Year2020
RAAN164.8814
Inclination53.0008
Eccentricity9.08E-05
Argument of Perigee68.5116
Mean Anonmoly34.1376
Mean Motion15.62728298
Decay Rate-0.00023042
L11 45766U 20038AN 20192.16668981 -.00023042 00000-0 -24677-3 0 9992
L22 45766 53.0008 164.8814 0000908 68.5116 34.1376 15.62728298 5326

Live tracking and technical data element details for STARLINK-1509 (NORAD 45766). STARLINK-1509 can be tracked NOW for your location showing map with azimuth and elevation plus other details from your city location.

Track the satellite on the map from your city or location and see movement details for azimuth, elevation, latitude, longitude, range, height, and movement on the map or in text.







IsCatalogInMostPopularTable: catalog: 45766, numindb: 4
Update: records affected: 1



GetName: 45766 STARLINK-1509

Hit Count: updated at: Fri, 10 Jul 2020 15:03:33 GMT